Location: Unspecified
(0.0000°N, 0.0000°E)
Time: 16:32:22
(UTC+00:00)

Alexis - Visible Passes

Search period start: 28 May 2024 00:00
Search period end: 07 June 2024 00:00
Orbit: 740 x 822 km, 69.9° (Epoch: 28 May)

Date Brightness Start Highest point End Pass type
(mag) Time Alt. Az. Time Alt. Az. Time Alt. Az.
03 Jun 8.0 19:53:26 23° NNE 19:53:26 23° NNE 19:55:26 10° NNE visible
04 Jun 7.0 19:11:53 10° S 19:16:51 36° ESE 19:21:41 10° NE visible
04 Jun 9.3 20:56:48 10° WSW 20:59:23 14° WNW 21:01:57 10° NW visible
05 Jun 7.7 18:39:26 10° SSE 18:43:29 21° ESE 18:47:27 10° ENE visible
05 Jun 8.7 20:21:47 10° SW 20:26:03 24° WNW 20:30:13 10° NNW visible
06 Jun 7.8 19:47:40 10° SW 19:52:43 41° WNW 19:57:39 10° N visible
